EZS548Q LFSB-LFKJ

Flight info

Callsign EZS548Q
Flight time 0h 57m
Altitude 37000
Route OLBEN Z50 GERSA N850 ODINA DCT UNITA DCT OLETI/N0400F190 M858 TORTU
Aircraft A320/M-SDE3FGHIRWY/LB1

Departure

Time 2026-04-09 10:02
Airport EuroAirport Basel–Mulhouse–Freiburg (LFSB)

Arrival

Time 2026-04-09 11:00
Airport Ajaccio Napoléon Bonaparte airport (LFKJ)
Time Latitude Longitude Altitude Speed Heading
2026-04-09 09:43 47.59749 7.52879 890 ft 0 kts 109°
2026-04-09 09:52 47.59750 7.52873 890 ft 2 kts 107°
2026-04-09 09:53 47.59754 7.52847 890 ft 3 kts 81°
2026-04-09 09:53 47.59747 7.52821 890 ft 3 kts 41°
2026-04-09 09:53 47.59731 7.52807 890 ft 3 kts
2026-04-09 09:53 47.59716 7.52807 890 ft 1 kts 336°
2026-04-09 09:54 47.59714 7.52808 890 ft 0 kts 335°
2026-04-09 09:56 47.59741 7.52789 890 ft 9 kts 335°
2026-04-09 09:56 47.59829 7.52728 890 ft 17 kts 335°
2026-04-09 09:56 47.59939 7.52652 890 ft 18 kts 335°
2026-04-09 09:57 47.60058 7.52569 890 ft 20 kts 335°
2026-04-09 09:57 47.60177 7.52480 890 ft 16 kts 309°
2026-04-09 09:57 47.60231 7.52350 890 ft 16 kts 339°
2026-04-09 09:57 47.60346 7.52273 885 ft 20 kts 335°
2026-04-09 09:58 47.60482 7.52177 882 ft 23 kts 333°
2026-04-09 09:58 47.60629 7.52075 882 ft 24 kts 335°
2026-04-09 09:58 47.60784 7.51970 881 ft 25 kts 334°
2026-04-09 09:58 47.60923 7.51875 878 ft 23 kts 332°
2026-04-09 09:59 47.61076 7.51763 874 ft 26 kts 335°
2026-04-09 09:59 47.61222 7.51662 870 ft 24 kts 335°
2026-04-09 09:59 47.61373 7.51558 867 ft 22 kts 335°
2026-04-09 09:59 47.61516 7.51458 854 ft 23 kts 335°
2026-04-09 10:00 47.61662 7.51357 869 ft 22 kts 335°
2026-04-09 10:00 47.61790 7.51248 873 ft 21 kts 306°
2026-04-09 10:00 47.61787 7.51086 876 ft 12 kts 243°
2026-04-09 10:00 47.61732 7.51014 875 ft 11 kts 174°
2026-04-09 10:01 47.61705 7.51031 875 ft 0 kts 152°
2026-04-09 10:01 47.61655 7.51070 876 ft 33 kts 152°
2026-04-09 10:01 47.61218 7.51377 869 ft 102 kts 154°
2026-04-09 10:01 47.60408 7.51939 882 ft 153 kts 155°
2026-04-09 10:02 47.59355 7.52680 1216 ft 168 kts 154°
2026-04-09 10:02 47.58302 7.53413 1963 ft 168 kts 155°
2026-04-09 10:02 47.57205 7.54163 2472 ft 183 kts 155°
2026-04-09 10:02 47.55986 7.55003 2752 ft 205 kts 155°
2026-04-09 10:03 47.54607 7.55956 3049 ft 231 kts 155°
2026-04-09 10:03 47.53339 7.56830 3374 ft 251 kts 155°
2026-04-09 10:03 47.51703 7.57962 4018 ft 265 kts 155°
2026-04-09 10:03 47.50014 7.59139 4927 ft 272 kts 156°
2026-04-09 10:04 47.48288 7.60344 5811 ft 277 kts 155°
2026-04-09 10:04 47.46462 7.61285 6668 ft 281 kts 173°
2026-04-09 10:04 47.44500 7.61532 7470 ft 284 kts 177°
2026-04-09 10:04 47.42512 7.61732 8279 ft 289 kts 178°
2026-04-09 10:05 47.40488 7.61928 9109 ft 293 kts 178°
2026-04-09 10:05 47.38440 7.62129 9929 ft 298 kts 177°
2026-04-09 10:05 47.36341 7.62341 10536 ft 310 kts 177°
2026-04-09 10:05 47.34138 7.62564 10810 ft 333 kts 177°
2026-04-09 10:06 47.31756 7.62987 10991 ft 358 kts 169°
2026-04-09 10:06 47.29302 7.64079 11224 ft 377 kts 158°
2026-04-09 10:06 47.26947 7.65868 11815 ft 384 kts 150°
2026-04-09 10:06 47.24613 7.67842 12486 ft 389 kts 150°
2026-04-09 10:07 47.22291 7.69908 13155 ft 393 kts 144°
2026-04-09 10:07 47.20209 7.72537 13812 ft 397 kts 133°
2026-04-09 10:07 47.18503 7.75748 14418 ft 400 kts 121°
2026-04-09 10:07 47.17257 7.79410 15000 ft 403 kts 109°
2026-04-09 10:08 47.16292 7.83298 15567 ft 406 kts 109°
2026-04-09 10:08 47.15328 7.87151 16120 ft 410 kts 109°
2026-04-09 10:08 47.14331 7.91089 16683 ft 414 kts 109°
2026-04-09 10:08 47.13402 7.95106 17225 ft 416 kts 103°
2026-04-09 10:09 47.12729 7.99232 17776 ft 419 kts 101°
2026-04-09 10:09 47.12057 8.03424 18328 ft 422 kts 101°
2026-04-09 10:09 47.11381 8.07637 18818 ft 425 kts 101°
2026-04-09 10:09 47.10696 8.11883 19296 ft 429 kts 101°
2026-04-09 10:10 47.10077 8.15720 19707 ft 431 kts 101°
2026-04-09 10:10 47.09383 8.20016 20163 ft 434 kts 101°
2026-04-09 10:10 47.08677 8.24349 20615 ft 437 kts 102°
2026-04-09 10:10 47.07972 8.28634 21049 ft 440 kts 102°
2026-04-09 10:11 47.07251 8.33011 21484 ft 443 kts 102°
2026-04-09 10:11 47.06474 8.37397 21910 ft 447 kts 106°
2026-04-09 10:11 47.05285 8.41610 22320 ft 452 kts 116°
2026-04-09 10:11 47.03594 8.45531 22725 ft 456 kts 127°
2026-04-09 10:12 47.01456 8.48956 23100 ft 459 kts 138°
2026-04-09 10:12 46.98876 8.51754 23490 ft 461 kts 150°
2026-04-09 10:12 46.95968 8.53731 23862 ft 462 kts 162°
2026-04-09 10:12 46.92845 8.54811 24210 ft 462 kts 174°
2026-04-09 10:13 46.89645 8.55272 24526 ft 464 kts 176°
2026-04-09 10:13 46.86466 8.55709 24869 ft 465 kts 176°
2026-04-09 10:13 46.83245 8.56162 25196 ft 466 kts 176°
2026-04-09 10:13 46.80004 8.56628 25540 ft 467 kts 176°
2026-04-09 10:14 46.76757 8.57102 25836 ft 470 kts 176°
2026-04-09 10:14 46.73499 8.57580 26129 ft 471 kts 176°
2026-04-09 10:14 46.70229 8.58057 26435 ft 473 kts 176°
2026-04-09 10:14 46.66947 8.58527 26714 ft 475 kts 176°
2026-04-09 10:15 46.63655 8.58991 27019 ft 477 kts 176°
2026-04-09 10:15 46.60347 8.59457 27308 ft 479 kts 176°
2026-04-09 10:15 46.57068 8.59918 27616 ft 480 kts 176°
2026-04-09 10:15 46.53752 8.60386 28040 ft 478 kts 176°
2026-04-09 10:16 46.50456 8.60855 28424 ft 477 kts 176°
2026-04-09 10:16 46.47152 8.61328 28831 ft 476 kts 176°
2026-04-09 10:16 46.43859 8.61799 29215 ft 475 kts 176°
2026-04-09 10:16 46.40572 8.62266 29595 ft 474 kts 176°
2026-04-09 10:17 46.37297 8.62729 30004 ft 473 kts 176°
2026-04-09 10:17 46.34019 8.63192 30396 ft 472 kts 176°
2026-04-09 10:17 46.30794 8.63643 30734 ft 472 kts 176°
2026-04-09 10:17 46.27528 8.64102 31048 ft 471 kts 176°
2026-04-09 10:18 46.24265 8.64564 31367 ft 471 kts 176°
2026-04-09 10:18 46.21006 8.65025 31694 ft 471 kts 176°
2026-04-09 10:18 46.17751 8.65484 32012 ft 469 kts 176°
2026-04-09 10:18 46.14499 8.65937 32297 ft 469 kts 176°
2026-04-09 10:19 46.11258 8.66384 32606 ft 469 kts 176°
2026-04-09 10:19 46.08005 8.66852 32898 ft 468 kts 175°
2026-04-09 10:19 46.04773 8.67377 33224 ft 468 kts 175°
2026-04-09 10:19 46.01585 8.67939 33535 ft 468 kts 174°
2026-04-09 10:20 45.98355 8.68531 33863 ft 467 kts 174°
2026-04-09 10:20 45.95133 8.69120 34177 ft 467 kts 174°
2026-04-09 10:20 45.91913 8.69697 34480 ft 466 kts 174°
2026-04-09 10:20 45.88692 8.70263 34771 ft 465 kts 175°
2026-04-09 10:21 45.85483 8.70815 35063 ft 464 kts 175°
2026-04-09 10:21 45.82275 8.71354 35365 ft 463 kts 175°
2026-04-09 10:21 45.79080 8.71889 35634 ft 463 kts 175°
2026-04-09 10:21 45.75888 8.72428 35886 ft 462 kts 175°
2026-04-09 10:22 45.72699 8.72973 36137 ft 461 kts 175°
2026-04-09 10:22 45.69551 8.73514 36368 ft 461 kts 175°
2026-04-09 10:22 45.66371 8.74061 36608 ft 460 kts 175°
2026-04-09 10:22 45.63193 8.74604 36838 ft 460 kts 175°
2026-04-09 10:23 45.60013 8.75145 37058 ft 460 kts 175°
2026-04-09 10:23 45.56835 8.75686 37154 ft 461 kts 175°
2026-04-09 10:23 45.50442 8.76772 37139 ft 464 kts 175°
2026-04-09 10:24 45.44027 8.77844 37135 ft 464 kts 175°
2026-04-09 10:24 45.37659 8.78915 37140 ft 464 kts 175°
2026-04-09 10:25 45.31244 8.80010 37144 ft 464 kts 175°
2026-04-09 10:25 45.24829 8.81096 37139 ft 464 kts 175°
2026-04-09 10:26 45.18414 8.82171 37132 ft 464 kts 175°
2026-04-09 10:26 45.12043 8.83225 37137 ft 464 kts 175°
2026-04-09 10:27 45.05622 8.84293 37135 ft 464 kts 175°
2026-04-09 10:27 44.99209 8.85376 37136 ft 464 kts 175°
2026-04-09 10:28 44.92789 8.86449 37134 ft 464 kts 175°
2026-04-09 10:28 44.86414 8.87500 37134 ft 464 kts 175°
2026-04-09 10:29 44.79999 8.88556 37132 ft 464 kts 175°
2026-04-09 10:29 44.73580 8.89619 37132 ft 464 kts 175°
2026-04-09 10:30 44.67169 8.90676 37132 ft 464 kts 175°
2026-04-09 10:30 44.60800 8.91723 37133 ft 464 kts 175°
2026-04-09 10:31 44.54398 8.92781 37131 ft 464 kts 175°
2026-04-09 10:31 44.47978 8.93830 37137 ft 464 kts 175°
2026-04-09 10:32 44.41572 8.94877 37131 ft 464 kts 175°
2026-04-09 10:32 44.35160 8.95920 37144 ft 464 kts 175°
2026-04-09 10:33 44.28789 8.96955 37144 ft 464 kts 175°
2026-04-09 10:33 44.22380 8.97992 37144 ft 464 kts 175°
2026-04-09 10:34 44.15979 8.99023 37150 ft 463 kts 175°
2026-04-09 10:34 44.09569 9.00059 37149 ft 463 kts 175°
2026-04-09 10:35 44.03208 9.01089 37146 ft 463 kts 175°
2026-04-09 10:35 43.96800 9.02114 37148 ft 463 kts 175°
2026-04-09 10:36 43.90396 9.02002 37148 ft 460 kts 187°
2026-04-09 10:37 43.80867 9.00829 37147 ft 460 kts 187°
2026-04-09 10:37 43.74492 9.00077 37145 ft 460 kts 186°
2026-04-09 10:38 43.68108 8.99346 37154 ft 460 kts 186°
2026-04-09 10:38 43.61725 8.98613 37153 ft 460 kts 186°
2026-04-09 10:39 43.55345 8.97865 37151 ft 460 kts 186°
2026-04-09 10:39 43.52201 8.97493 36947 ft 459 kts 186°
2026-04-09 10:39 43.49022 8.97106 36685 ft 459 kts 186°
2026-04-09 10:39 43.45847 8.96710 36424 ft 459 kts 186°
2026-04-09 10:40 43.42660 8.96310 36137 ft 459 kts 186°
2026-04-09 10:40 43.39490 8.95811 35442 ft 459 kts 191°
2026-04-09 10:40 43.36377 8.94753 34559 ft 462 kts 199°
2026-04-09 10:40 43.33310 8.93375 33586 ft 468 kts 199°
2026-04-09 10:41 43.30206 8.91981 32666 ft 470 kts 199°
2026-04-09 10:41 43.27084 8.90586 31663 ft 474 kts 198°
2026-04-09 10:41 43.23933 8.89186 30698 ft 478 kts 198°
2026-04-09 10:41 43.20808 8.87803 29553 ft 482 kts 198°
2026-04-09 10:42 43.17598 8.86385 28394 ft 485 kts 198°
2026-04-09 10:42 43.14380 8.84961 27284 ft 487 kts 198°
2026-04-09 10:42 43.11123 8.83519 26009 ft 492 kts 198°
2026-04-09 10:42 43.07853 8.82072 24741 ft 497 kts 198°
2026-04-09 10:43 43.04545 8.80610 23679 ft 496 kts 198°
2026-04-09 10:43 43.01369 8.79209 22490 ft 480 kts 198°
2026-04-09 10:43 42.98258 8.77839 21668 ft 459 kts 198°
2026-04-09 10:43 42.95275 8.76527 20865 ft 445 kts 198°
2026-04-09 10:44 42.92331 8.75232 20065 ft 445 kts 198°
2026-04-09 10:44 42.89388 8.73936 19270 ft 444 kts 198°
2026-04-09 10:44 42.86447 8.72643 18488 ft 444 kts 198°
2026-04-09 10:44 42.83509 8.71354 17657 ft 442 kts 198°
2026-04-09 10:45 42.80631 8.70094 16932 ft 439 kts 198°
2026-04-09 10:45 42.77740 8.68830 16212 ft 435 kts 198°
2026-04-09 10:45 42.74869 8.67578 15510 ft 431 kts 198°
2026-04-09 10:45 42.72054 8.66355 14717 ft 417 kts 198°
2026-04-09 10:46 42.69313 8.65164 13624 ft 413 kts 198°
2026-04-09 10:46 42.66585 8.63977 13188 ft 411 kts 198°
2026-04-09 10:46 42.63867 8.62790 12869 ft 408 kts 198°
2026-04-09 10:46 42.61185 8.61620 12266 ft 402 kts 198°
2026-04-09 10:47 42.58533 8.60461 11651 ft 398 kts 198°
2026-04-09 10:47 42.55970 8.59346 11363 ft 385 kts 198°
2026-04-09 10:47 42.53475 8.58262 11237 ft 368 kts 198°
2026-04-09 10:47 42.51090 8.57228 11114 ft 353 kts 199°
2026-04-09 10:48 42.48800 8.56242 10996 ft 339 kts 198°
2026-04-09 10:48 42.46594 8.55295 10874 ft 326 kts 198°
2026-04-09 10:48 42.44470 8.54379 10755 ft 315 kts 199°
2026-04-09 10:48 42.42423 8.53493 10634 ft 304 kts 199°
2026-04-09 10:49 42.40430 8.52630 10416 ft 298 kts 199°
2026-04-09 10:49 42.38475 8.51785 10316 ft 295 kts 199°
2026-04-09 10:49 42.36519 8.50940 10196 ft 294 kts 199°
2026-04-09 10:49 42.34600 8.50112 10018 ft 292 kts 199°
2026-04-09 10:50 42.32670 8.49279 9642 ft 291 kts 199°
2026-04-09 10:50 42.30749 8.48448 9280 ft 289 kts 199°
2026-04-09 10:50 42.28845 8.47623 8921 ft 286 kts 199°
2026-04-09 10:50 42.26964 8.46811 8328 ft 283 kts 199°
2026-04-09 10:51 42.25095 8.46006 7706 ft 281 kts 199°
2026-04-09 10:51 42.23216 8.45350 7097 ft 278 kts 187°
2026-04-09 10:51 42.21295 8.45419 6498 ft 276 kts 169°
2026-04-09 10:51 42.19486 8.46254 5872 ft 277 kts 152°
2026-04-09 10:52 42.17828 8.47560 5544 ft 274 kts 150°
2026-04-09 10:52 42.16205 8.48845 5298 ft 274 kts 148°
2026-04-09 10:52 42.14701 8.50421 5054 ft 273 kts 141°
2026-04-09 10:52 42.13265 8.52036 4802 ft 266 kts 141°
2026-04-09 10:53 42.11862 8.53611 4545 ft 259 kts 141°
2026-04-09 10:53 42.10519 8.55120 4286 ft 245 kts 141°
2026-04-09 10:53 42.09221 8.56577 4049 ft 241 kts 141°
2026-04-09 10:53 42.07944 8.58006 3804 ft 239 kts 141°
2026-04-09 10:54 42.06681 8.59415 3560 ft 238 kts 141°
2026-04-09 10:54 42.05414 8.60831 3320 ft 237 kts 141°
2026-04-09 10:54 42.04147 8.62251 3082 ft 235 kts 141°
2026-04-09 10:54 42.02917 8.63634 2989 ft 225 kts 141°
2026-04-09 10:55 42.01790 8.64987 3004 ft 210 kts 132°
2026-04-09 10:55 42.01000 8.66547 3028 ft 199 kts 117°
2026-04-09 10:55 42.00568 8.68304 3007 ft 192 kts 101°
2026-04-09 10:55 42.00341 8.69982 2948 ft 173 kts 99°
2026-04-09 10:56 42.00171 8.71502 2941 ft 159 kts 98°
2026-04-09 10:56 42.00014 8.72955 2935 ft 156 kts 98°
2026-04-09 10:56 41.99837 8.74369 2826 ft 156 kts 100°
2026-04-09 10:56 41.99634 8.75794 2525 ft 154 kts 104°
2026-04-09 10:57 41.99400 8.77185 2359 ft 152 kts 103°
2026-04-09 10:57 41.99192 8.78586 2041 ft 155 kts 102°
2026-04-09 10:57 41.99011 8.80003 1844 ft 152 kts 100°
2026-04-09 10:57 41.98736 8.81338 1588 ft 145 kts 125°
2026-04-09 10:58 41.97989 8.82163 1248 ft 139 kts 170°
2026-04-09 10:58 41.97052 8.82361 1105 ft 137 kts 178°
2026-04-09 10:58 41.96101 8.82294 848 ft 138 kts 191°
2026-04-09 10:58 41.95184 8.81957 642 ft 135 kts 202°
2026-04-09 10:59 41.94321 8.81445 433 ft 136 kts 207°
2026-04-09 10:59 41.93481 8.80906 217 ft 134 kts 203°
2026-04-09 10:59 41.92632 8.80397 33 ft 128 kts 205°
2026-04-09 10:59 41.91933 8.79962 20 ft 88 kts 205°
2026-04-09 11:00 41.91529 8.79709 17 ft 47 kts 205°
2026-04-09 11:00 41.91303 8.79566 23 ft 23 kts 204°
2026-04-09 11:00 41.91251 8.79435 24 ft 15 kts 301°
2026-04-09 11:00 41.91329 8.79375 25 ft 11 kts 334°
2026-04-09 11:01 41.91384 8.79341 27 ft 8 kts 338°
2026-04-09 11:01 41.91434 8.79333 27 ft 8 kts
2026-04-09 11:01 41.91486 8.79350 30 ft 8 kts 25°
2026-04-09 11:01 41.91533 8.79379 28 ft 8 kts 25°
2026-04-09 11:02 41.91603 8.79422 30 ft 12 kts 24°
2026-04-09 11:02 41.91681 8.79470 29 ft 15 kts 25°
2026-04-09 11:02 41.91780 8.79532 29 ft 15 kts 25°
2026-04-09 11:02 41.91870 8.79590 30 ft 14 kts 25°
2026-04-09 11:03 41.91927 8.79600 26 ft 6 kts 307°
2026-04-09 11:03 41.91954 8.79578 27 ft 3 kts 346°
2026-04-09 11:03 41.91955 8.79577 27 ft 0 kts 345°
2026-04-09 11:03 41.91956 8.79576 27 ft 0 kts 345°